When you browse on this site, cookies collect data to enhance your experience and personalize the content and advertising you see.
Visit our Privacy Policy to learn more. By continuing to use the site, you agree to this use of cookies and data.
  • In Romania
  • List of Countries
  • For 7 days
  • Water Temperature
  • Weather Map
  • Weather Widgets
  • user-avatar
    Login

    Hourly Weather Umm al-Quwain

    Today, 3 June, Wednesday

    Time Temperature Precipitation Wind Pressure Humidity
    00:00 +36°C° 0 mm 2 mps 750 mmHg 52%
    01:00 +35°C° 0 mm 2 mps 750 mmHg 56%
    02:00 +35°C° 0 mm 2 mps 749 mmHg 56%
    03:00 +35°C° 0 mm 2 mps 749 mmHg 56%
    04:00 +34°C° 0 mm 3 mps 749 mmHg 61%
    05:00 +35°C° 0 mm 3 mps 749 mmHg 58%
    06:00 +35°C° 0 mm 4 mps 750 mmHg 55%
    07:00 +35°C° 0 mm 4 mps 750 mmHg 52%
    08:00 +37°C° 0 mm 4 mps 750 mmHg 44%
    09:00 +40°C° 0 mm 4 mps 750 mmHg 36%
    10:00 +42°C° 0 mm 5 mps 751 mmHg 26%
    11:00 +43°C° 0 mm 5 mps 750 mmHg 26%
    12:00 +43°C° 0 mm 5 mps 750 mmHg 25%
    13:00 +45°C° 0 mm 5 mps 750 mmHg 25%
    14:00 +43°C° 0 mm 5 mps 750 mmHg 27%
    15:00 +43°C° 0 mm 5 mps 749 mmHg 29%
    16:00 +42°C° 0 mm 5 mps 749 mmHg 31%
    17:00 +41°C° 0 mm 4 mps 749 mmHg 32%
    18:00 +40°C° 0 mm 4 mps 749 mmHg 34%
    19:00 +39°C° 0 mm 3 mps 749 mmHg 36%
    20:00 +38°C° 0 mm 3 mps 750 mmHg 39%
    21:00 +37°C° 0 mm 3 mps 750 mmHg 42%
    22:00 +37°C° 0 mm 2 mps 750 mmHg 46%
    23:00 +37°C° 0 mm 3 mps 749 mmHg 45%

    Tomorrow, 4 June, Thursday

    Time Temperature Precipitation Wind Pressure Humidity
    00:00 +36°C° 0 mm 4 mps 749 mmHg 45%
    01:00 +36°C° 0 mm 4 mps 749 mmHg 45%
    02:00 +36°C° 0 mm 4 mps 748 mmHg 46%
    03:00 +35°C° 0 mm 3 mps 748 mmHg 47%
    04:00 +35°C° 0 mm 2 mps 748 mmHg 47%
    05:00 +35°C° 0 mm 2 mps 749 mmHg 44%
    06:00 +36°C° 0 mm 3 mps 749 mmHg 41%
    07:00 +36°C° 0 mm 3 mps 750 mmHg 38%
    08:00 +38°C° 0 mm 3 mps 750 mmHg 34%
    09:00 +40°C° 0 mm 3 mps 750 mmHg 29%
    10:00 +42°C° 0 mm 2 mps 750 mmHg 25%
    11:00 +44°C° 0 mm 3 mps 750 mmHg 25%
    12:00 +45°C° 0 mm 4 mps 750 mmHg 25%
    13:00 +47°C° 0 mm 5 mps 749 mmHg 25%
    14:00 +45°C° 0 mm 4 mps 749 mmHg 27%
    15:00 +44°C° 0 mm 4 mps 748 mmHg 30%
    16:00 +44°C° 0 mm 4 mps 748 mmHg 32%
    17:00 +43°C° 0 mm 3 mps 748 mmHg 35%
    18:00 +40°C° 0 mm 3 mps 748 mmHg 39%
    19:00 +39°C° 0 mm 3 mps 748 mmHg 43%
    20:00 +39°C° 0 mm 3 mps 748 mmHg 44%
    21:00 +38°C° 0 mm 2 mps 748 mmHg 46%
    22:00 +38°C° 0 mm 2 mps 749 mmHg 48%
    23:00 +37°C° 0 mm 2 mps 748 mmHg 50%

    Day after tomorrow, 5 June, Friday

    Time Temperature Precipitation Wind Pressure Humidity
    00:00 +37°C° 0 mm 2 mps 748 mmHg 51%
    01:00 +36°C° 0 mm 2 mps 748 mmHg 53%
    02:00 +36°C° 0 mm 2 mps 748 mmHg 52%
    03:00 +35°C° 0 mm 2 mps 748 mmHg 51%
    04:00 +35°C° 0 mm 2 mps 747 mmHg 51%
    05:00 +36°C° 0 mm 2 mps 748 mmHg 46%
    06:00 +36°C° 0 mm 2 mps 748 mmHg 42%
    07:00 +37°C° 0 mm 3 mps 749 mmHg 38%
    08:00 +40°C° 0 mm 2 mps 749 mmHg 31%
    09:00 +42°C° 0 mm 1 mps 749 mmHg 24%
    10:00 +44°C° 0 mm 1 mps 750 mmHg 17%
    11:00 +45°C° 0 mm 2 mps 749 mmHg 20%
    12:00 +45°C° 0 mm 3 mps 749 mmHg 23%
    13:00 +45°C° 0 mm 4 mps 749 mmHg 26%
    14:00 +45°C° 0 mm 4 mps 748 mmHg 26%
    15:00 +45°C° 0 mm 3 mps 748 mmHg 25%
    16:00 +45°C° 0 mm 3 mps 747 mmHg 24%
    17:00 +44°C° 0 mm 3 mps 747 mmHg 25%
    18:00 +43°C° 0 mm 3 mps 747 mmHg 26%
    19:00 +42°C° 0 mm 3 mps 747 mmHg 28%
    20:00 +41°C° 0 mm 2 mps 748 mmHg 29%
    21:00 +40°C° 0 mm 2 mps 748 mmHg 31%
    22:00 +39°C° 0 mm 2 mps 748 mmHg 33%
    23:00 +39°C° 0 mm 1 mps 748 mmHg 34%

    6 June, Saturday

    Time Temperature Precipitation Wind Pressure Humidity
    00:00 +37°C° 0 mm 1 mps 748 mmHg 35%
    01:00 +34°C° 0 mm 0 mps 748 mmHg 36%
    02:00 +36°C° 0 mm 1 mps 747 mmHg 36%
    03:00 +35°C° 0 mm 1 mps 747 mmHg 37%
    04:00 +35°C° 0 mm 1 mps 747 mmHg 38%
    05:00 +36°C° 0 mm 1 mps 748 mmHg 34%
    06:00 +37°C° 0 mm 1 mps 748 mmHg 30%
    07:00 +39°C° 0 mm 1 mps 749 mmHg 26%
    08:00 +41°C° 0 mm 1 mps 749 mmHg 24%
    09:00 +44°C° 0 mm 1 mps 749 mmHg 21%
    10:00 +46°C° 0 mm 1 mps 750 mmHg 19%
    11:00 +48°C° 0 mm 2 mps 749 mmHg 17%
    12:00 +50°C° 0 mm 4 mps 749 mmHg 15%
    13:00 +50°C° 0 mm 5 mps 749 mmHg 14%
    14:00 +50°C° 0 mm 5 mps 748 mmHg 15%
    15:00 +49°C° 0 mm 5 mps 748 mmHg 17%
    16:00 +48°C° 0 mm 5 mps 747 mmHg 18%
    17:00 +47°C° 0 mm 4 mps 747 mmHg 21%
    18:00 +44°C° 0 mm 4 mps 747 mmHg 23%
    19:00 +43°C° 0 mm 4 mps 747 mmHg 25%
    20:00 +42°C° 0 mm 3 mps 747 mmHg 29%
    21:00 +40°C° 0 mm 3 mps 747 mmHg 32%
    22:00 +39°C° 0 mm 2 mps 747 mmHg 36%
    23:00 +38°C° 0 mm 2 mps 747 mmHg 36%

    7 June, Sunday

    Time Temperature Precipitation Wind Pressure Humidity
    00:00 +37°C° 0 mm 1 mps 747 mmHg 37%
    01:00 +36°C° 0 mm 1 mps 746 mmHg 37%
    02:00 +36°C° 0 mm 1 mps 746 mmHg 37%
    03:00 +37°C° 0 mm 2 mps 746 mmHg 36%
    04:00 +36°C° 0 mm 2 mps 747 mmHg 36%
    05:00 +36°C° 0 mm 3 mps 747 mmHg 42%
    06:00 +36°C° 0 mm 3 mps 747 mmHg 49%
    07:00 +36°C° 0 mm 4 mps 748 mmHg 55%
    08:00 +38°C° 0 mm 4 mps 748 mmHg 46%
    09:00 +42°C° 0 mm 3 mps 749 mmHg 36%
    10:00 +45°C° 0 mm 3 mps 749 mmHg 26%
    11:00 +47°C° 0 mm 4 mps 749 mmHg 23%
    12:00 +48°C° 0 mm 4 mps 749 mmHg 20%
    13:00 +50°C° 0 mm 4 mps 748 mmHg 17%
    14:00 +48°C° 0 mm 4 mps 748 mmHg 22%
    15:00 +45°C° 0 mm 4 mps 747 mmHg 27%
    16:00 +43°C° 0 mm 5 mps 747 mmHg 32%
    17:00 +43°C° 0 mm 4 mps 747 mmHg 31%
    18:00 +42°C° 0 mm 4 mps 747 mmHg 31%
    19:00 +42°C° 0 mm 4 mps 747 mmHg 30%
    20:00 +42°C° 0 mm 3 mps 747 mmHg 32%
    21:00 +40°C° 0 mm 2 mps 747 mmHg 34%
    22:00 +40°C° 0 mm 1 mps 747 mmHg 36%
    23:00 +39°C° 0 mm 1 mps 747 mmHg 36%

    8 June, Monday

    Time Temperature Precipitation Wind Pressure Humidity
    00:00 +38°C° 0 mm 2 mps 747 mmHg 37%
    01:00 +38°C° 0 mm 2 mps 747 mmHg 38%
    02:00 +37°C° 0 mm 2 mps 747 mmHg 42%
    03:00 +36°C° 0 mm 2 mps 747 mmHg 47%
    04:00 +35°C° 0 mm 2 mps 747 mmHg 51%
    05:00 +35°C° 0 mm 3 mps 748 mmHg 54%
    06:00 +35°C° 0 mm 4 mps 748 mmHg 56%
    07:00 +35°C° 0 mm 6 mps 748 mmHg 58%
    08:00 +37°C° 0 mm 5 mps 749 mmHg 50%
    09:00 +40°C° 0 mm 5 mps 749 mmHg 43%
    10:00 +42°C° 0 mm 4 mps 749 mmHg 35%
    11:00 +43°C° 0 mm 4 mps 749 mmHg 32%
    12:00 +45°C° 0 mm 3 mps 749 mmHg 28%
    13:00 +46°C° 0 mm 3 mps 748 mmHg 25%
    14:00 +45°C° 0 mm 4 mps 748 mmHg 31%
    15:00 +43°C° 0 mm 5 mps 747 mmHg 36%
    16:00 +42°C° 0 mm 5 mps 747 mmHg 41%
    17:00 +41°C° 0 mm 4 mps 747 mmHg 42%
    18:00 +41°C° 0 mm 4 mps 747 mmHg 42%
    19:00 +39°C° 0 mm 3 mps 747 mmHg 43%
    20:00 +39°C° 0 mm 2 mps 748 mmHg 45%
    21:00 +37°C° 0 mm 1 mps 748 mmHg 48%
    22:00 +37°C° 0 mm 1 mps 748 mmHg 50%
    23:00 +36°C° 0 mm 1 mps 748 mmHg 52%
    Show more